Hourly Weather Cerinza

Today, 19 June, Saturday

Time Temperature Precipitation Wind Pressure Humidity
00:00 +8°C° 0 mm 2 mps 547 mmHg 95%
01:00 +9°C° 0 mm 1 mps 547 mmHg 95%
02:00 +10°C° 0 mm 1 mps 547 mmHg 95%
03:00 +10°C° 0 mm 1 mps 547 mmHg 95%
04:00 +10°C° 0 mm 1 mps 547 mmHg 95%
05:00 +11°C° 0 mm 1 mps 548 mmHg 93%
06:00 +11°C° 0 mm 1 mps 548 mmHg 92%
07:00 +12°C° 0 mm 1 mps 549 mmHg 90%
08:00 +13°C° 0.7 mm 1 mps 549 mmHg 87%
09:00 +14°C° 0.7 mm 1 mps 550 mmHg 85%
10:00 +14°C° 0.7 mm 2 mps 550 mmHg 82%
11:00 +15°C° 0.8 mm 1 mps 550 mmHg 78%
12:00 +16°C° 0.8 mm 1 mps 550 mmHg 74%
13:00 +16°C° 0.8 mm 1 mps 550 mmHg 71%
14:00 +16°C° 0.4 mm 1 mps 549 mmHg 71%
15:00 +16°C° 0.4 mm 1 mps 549 mmHg 72%
16:00 +16°C° 0.4 mm 1 mps 548 mmHg 73%
17:00 +15°C° 0.3 mm 1 mps 548 mmHg 80%
18:00 +13°C° 0.3 mm 1 mps 548 mmHg 87%
19:00 +10°C° 0.3 mm 2 mps 548 mmHg 94%
20:00 +10°C° 0.1 mm 2 mps 548 mmHg 94%
21:00 +11°C° 0.1 mm 1 mps 548 mmHg 94%
22:00 +11°C° 0.1 mm 1 mps 549 mmHg 94%
23:00 +11°C° 0 mm 1 mps 548 mmHg 94%

Tomorrow, 20 June, Sunday

Time Temperature Precipitation Wind Pressure Humidity
00:00 +10°C° 0 mm 1 mps 548 mmHg 95%
01:00 +10°C° 0 mm 1 mps 547 mmHg 95%
02:00 +10°C° 0 mm 1 mps 547 mmHg 95%
03:00 +9°C° 0 mm 2 mps 547 mmHg 95%
04:00 +9°C° 0 mm 2 mps 547 mmHg 95%
05:00 +10°C° 0.1 mm 1 mps 547 mmHg 94%
06:00 +10°C° 0.1 mm 1 mps 548 mmHg 94%
07:00 +11°C° 0.1 mm 1 mps 548 mmHg 93%
08:00 +12°C° 0 mm 1 mps 549 mmHg 88%
09:00 +13°C° 0 mm 1 mps 549 mmHg 83%
10:00 +14°C° 0 mm 1 mps 550 mmHg 77%
11:00 +15°C° 0.1 mm 1 mps 550 mmHg 73%
12:00 +16°C° 0.1 mm 1 mps 550 mmHg 70%
13:00 +18°C° 0.1 mm 1 mps 550 mmHg 66%
14:00 +16°C° 0.6 mm 1 mps 549 mmHg 75%
15:00 +14°C° 0.6 mm 1 mps 548 mmHg 84%
16:00 +13°C° 0.6 mm 1 mps 547 mmHg 94%
17:00 +12°C° 1.4 mm 1 mps 547 mmHg 95%
18:00 +12°C° 1.4 mm 1 mps 548 mmHg 96%
19:00 +11°C° 1.4 mm 1 mps 548 mmHg 97%
20:00 +11°C° 0.2 mm 1 mps 548 mmHg 97%
21:00 +11°C° 0.2 mm 1 mps 549 mmHg 97%
22:00 +11°C° 0.2 mm 1 mps 549 mmHg 96%
23:00 +11°C° 0.3 mm 1 mps 548 mmHg 96%

Day after tomorrow, 21 June, Monday

Time Temperature Precipitation Wind Pressure Humidity
00:00 +11°C° 0.3 mm 1 mps 548 mmHg 96%
01:00 +11°C° 0.3 mm 1 mps 548 mmHg 96%
02:00 +10°C° 0.1 mm 1 mps 548 mmHg 96%
03:00 +10°C° 0.1 mm 1 mps 547 mmHg 96%
04:00 +10°C° 0.1 mm 1 mps 547 mmHg 96%
05:00 +9°C° 0 mm 2 mps 548 mmHg 95%
06:00 +10°C° 0 mm 2 mps 548 mmHg 93%
07:00 +10°C° 0 mm 2 mps 548 mmHg 91%
08:00 +13°C° 0 mm 2 mps 549 mmHg 79%
09:00 +15°C° 0 mm 2 mps 550 mmHg 67%
10:00 +17°C° 0 mm 2 mps 551 mmHg 55%
11:00 +18°C° 0.1 mm 2 mps 551 mmHg 54%
12:00 +18°C° 0.1 mm 2 mps 550 mmHg 53%
13:00 +19°C° 0.1 mm 2 mps 550 mmHg 53%
14:00 +18°C° 0.3 mm 2 mps 549 mmHg 58%
15:00 +18°C° 0.3 mm 1 mps 549 mmHg 64%
16:00 +16°C° 0.3 mm 1 mps 548 mmHg 69%
17:00 +14°C° 0.3 mm 1 mps 548 mmHg 77%
18:00 +12°C° 0.3 mm 1 mps 547 mmHg 85%
19:00 +10°C° 0.3 mm 1 mps 547 mmHg 93%
20:00 +10°C° 0.1 mm 1 mps 547 mmHg 93%
21:00 +10°C° 0.1 mm 1 mps 547 mmHg 94%
22:00 +9°C° 0.1 mm 1 mps 548 mmHg 95%
23:00 +9°C° 0 mm 1 mps 547 mmHg 94%

22 June, Tuesday

Time Temperature Precipitation Wind Pressure Humidity
00:00 +9°C° 0 mm 1 mps 547 mmHg 93%
01:00 +9°C° 0 mm 1 mps 547 mmHg 92%
02:00 +9°C° 0 mm 1 mps 547 mmHg 92%
03:00 +9°C° 0 mm 1 mps 547 mmHg 92%
04:00 +9°C° 0 mm 1 mps 547 mmHg 92%
05:00 +10°C° 0.1 mm 1 mps 547 mmHg 91%
06:00 +10°C° 0.1 mm 1 mps 548 mmHg 90%
07:00 +11°C° 0.1 mm 1 mps 548 mmHg 90%
08:00 +13°C° 0.1 mm 1 mps 549 mmHg 80%
09:00 +15°C° 0.1 mm 1 mps 550 mmHg 70%
10:00 +18°C° 0.1 mm 1 mps 551 mmHg 60%
11:00 +18°C° 0.6 mm 1 mps 550 mmHg 65%
12:00 +18°C° 0.6 mm 1 mps 550 mmHg 70%
13:00 +16°C° 0.6 mm 1 mps 549 mmHg 74%
14:00 +16°C° 0.9 mm 1 mps 549 mmHg 77%
15:00 +15°C° 0.9 mm 1 mps 548 mmHg 80%
16:00 +15°C° 0.9 mm 1 mps 548 mmHg 83%
17:00 +14°C° 1 mm 1 mps 548 mmHg 87%
18:00 +13°C° 1 mm 1 mps 548 mmHg 91%
19:00 +12°C° 1 mm 1 mps 548 mmHg 95%
20:00 +11°C° 0.3 mm 1 mps 548 mmHg 95%
21:00 +11°C° 0.3 mm 1 mps 548 mmHg 95%
22:00 +11°C° 0.3 mm 1 mps 548 mmHg 95%
23:00 +11°C° 0 mm 1 mps 548 mmHg 95%

23 June, Wednesday

Time Temperature Precipitation Wind Pressure Humidity
00:00 +11°C° 0 mm 1 mps 548 mmHg 94%
01:00 +10°C° 0 mm 1 mps 547 mmHg 94%
02:00 +10°C° 0 mm 1 mps 547 mmHg 94%
03:00 +10°C° 0 mm 1 mps 547 mmHg 94%
04:00 +10°C° 0 mm 1 mps 547 mmHg 94%
05:00 +11°C° 0 mm 1 mps 548 mmHg 92%
06:00 +11°C° 0 mm 1 mps 548 mmHg 91%
07:00 +11°C° 0 mm 0 mps 548 mmHg 90%
08:00 +13°C° 0.1 mm 1 mps 549 mmHg 83%
09:00 +15°C° 0.1 mm 1 mps 550 mmHg 76%
10:00 +16°C° 0.1 mm 1 mps 550 mmHg 69%
11:00 +16°C° 0.6 mm 1 mps 550 mmHg 72%
12:00 +16°C° 0.6 mm 1 mps 549 mmHg 76%
13:00 +16°C° 0.6 mm 1 mps 549 mmHg 79%
14:00 +15°C° 0.9 mm 1 mps 548 mmHg 82%
15:00 +15°C° 0.9 mm 1 mps 548 mmHg 86%
16:00 +14°C° 0.9 mm 1 mps 548 mmHg 89%
17:00 +13°C° 0.6 mm 1 mps 548 mmHg 91%
18:00 +12°C° 0.6 mm 1 mps 548 mmHg 94%
19:00 +11°C° 0.6 mm 1 mps 548 mmHg 96%
20:00 +11°C° 0.6 mm 1 mps 548 mmHg 96%
21:00 +11°C° 0.6 mm 1 mps 548 mmHg 96%
22:00 +11°C° 0.6 mm 1 mps 548 mmHg 96%
23:00 +11°C° 0.1 mm 1 mps 548 mmHg 95%

24 June, Thursday

Time Temperature Precipitation Wind Pressure Humidity
00:00 +11°C° 0.1 mm 1 mps 548 mmHg 95%
01:00 +11°C° 0.1 mm 1 mps 547 mmHg 95%
02:00 +11°C° 0.1 mm 1 mps 547 mmHg 94%
03:00 +10°C° 0.1 mm 1 mps 547 mmHg 94%
04:00 +10°C° 0.1 mm 1 mps 547 mmHg 94%
05:00 +11°C° 0 mm 1 mps 547 mmHg 93%
06:00 +11°C° 0 mm 1 mps 548 mmHg 91%
07:00 +12°C° 0 mm 1 mps 548 mmHg 90%
08:00 +13°C° 0.2 mm 1 mps 549 mmHg 84%
09:00 +15°C° 0.2 mm 1 mps 549 mmHg 78%
10:00 +16°C° 0.2 mm 1 mps 550 mmHg 72%
11:00 +16°C° 0.7 mm 1 mps 550 mmHg 72%
12:00 +18°C° 0.7 mm 1 mps 549 mmHg 72%
13:00 +18°C° 0.7 mm 1 mps 549 mmHg 72%
14:00 +18°C° 0.8 mm 1 mps 549 mmHg 74%
15:00 +16°C° 0.8 mm 1 mps 548 mmHg 77%
16:00 +16°C° 0.8 mm 1 mps 548 mmHg 79%
17:00 +14°C° 0.5 mm 1 mps 547 mmHg 84%
18:00 +13°C° 0.5 mm 1 mps 547 mmHg 88%
19:00 +11°C° 0.5 mm 1 mps 547 mmHg 92%
20:00 +10°C° 0.2 mm 1 mps 547 mmHg 93%
21:00 +10°C° 0.2 mm 1 mps 547 mmHg 94%
22:00 +9°C° 0.2 mm 1 mps 548 mmHg 95%
23:00 +9°C° 0 mm 1 mps 547 mmHg 94%
Show more

We Need Your Consent

Meteoprog and our Service Providers may store and access personal data such as cookies, device identifiers or other similar technologies on your device and process such data to personalise content and ads, as well as provide social media features and to analyse the traffic.

  • Store and/or access information on your device

    Cookies, device identifiers or other information can be stored or accessed on your device for the purposes indicated above.

  • Personalised ads and content, ad and content measurement, audience insights, and products development

    Ads and content can be personalised based on a profile. More data can be added to better personalise ads and content. Ad and content performance can be measured. Insights about the audience who saw the ads and content can be derived. Such data can be used to develop or improve user’s experience, systems and software.

By clicking ‘I Agree’ you will allow the use of indicated cookies, device identifiers, web beacons or other similar technologies. Your settings can be changed in the browser on your device.

For certain purposes, legitimate interests may be relied on, rather than consent. You can read more about this in our Privacy and Cookie Policy.